www.pogodaiklimat.ru
ПОГОДА в Улан-Баторе
Время
(UTC), дата
15 7.07
18 7.07
21 7.07
00 8.07
03 8.07
06 8.07
09 8.07
12 8.07
15 8.07
18 8.07
21 8.07
00 9.07
03 9.07
06 9.07
09 9.07
12 9.07
15 9.07
18 9.07
21 9.07
00 10.07
03 10.07
06 10.07
09 10.07
12 10.07
15 10.07
18 10.07
21 10.07
00 11.07
03 11.07
06 11.07
09 11.07
12 11.07
15 11.07
18 11.07
21 11.07
00 12.07
03 12.07
06 12.07
09 12.07
12 12.07
15 12.07
18 12.07
21 12.07
00 13.07
03 13.07
06 13.07
09 13.07
12 13.07
15 13.07
18 13.07
21 13.07
00 14.07
03 14.07
06 14.07
09 14.07
12 14.07
Ветер
(напр.,м/с)
Видим. Явления Облачность Т
(С)
Тd
(С)
f
(%)
Тe
(С)
Тes
(С)
Комфортность P
(гПа)
Po
(гПа)
Тmin
(С)
Tmax
(С)
R
(мм)
R24
(мм)
S
(см)
СВ 4 н/о 4/0 2000 м
[Ac cuf]
+21.7 +10.3 48 +23 +23 комфорт 1001.8 861.1
штиль 0 н/о гроза без осадков 8/4 600 м
[Cb cap Ac lent]
+19.3 +10.1 55 +20 +20 тепло 1002.0 860.2
В 1 10 км гроза, ливневой дождь 9/9 600 м
[Cb cap]
+17.7 +11.5 67 +19 +19 тепло 1002.9 860.3
штиль 0 50 км {гроза, ливн. дождь} 9/5 1000 м
[Cb calv Ac As]
+19.2 +10.8 58 +20 +21 тепло 1001.2 859.5 +17.3 0.3
штиль 0 4000 м мгла 8/3 1000 м
[Cu Sc Ac cast Ci]
+25.4 +10.5 39 +26 +36 жарко 997.7 859.2
штиль 0 4000 м мгла 9/1 1000 м
[Cb calv Cs]
+29.8 +8.3 26 +29 +46 жарко 993.0 857.0
В 5-17
{17}
2000 м гроза, ливневой дождь 10/10 600 м
[Cb cap]
+20.7 +13.9 65 +23 +23 комфорт 996.2 855.9
ЮЗ 3 50 км в посл. час гроза {ливн. дождь} 10/10 600 м
[Cb cap]
+23.4 +10.5 44 +25 +25 комфорт 994.3 855.4 +31.9 8
СВ 1 н/о {ливн. дождь} 8/4 1000 м
[Cb calv Ac und]
+20.0 +12.8 63 +23 +23 комфорт 997.7 856.8
В 1 н/о слаб. ливневой дождь 10/10 600 м
[Cb cap]
+18.1 +12.8 71 +19 +19 тепло 998.1 856.3
штиль 0 50 км {ливн. дождь} 9/4 1000 м
[Cb calv Ac und]
+17.1 +10.7 66 +17 +17 тепло 997.2 855.1
штиль 0 50 км {ливн. дождь} 9/5 1000 м
[Sc Ac und]
+18.8 +11.4 62 +19 +21 тепло 997.3 856.0 +16.6 0.0
В 2 50 км {ливн. дождь} 9/6 1000 м
[Cb calv Ac trans Ci]
+21.5 +11.8 54 +24 +27 комфорт 994.9 855.1
В 5 50 км {ливн. дождь} 9/9 600 м
[Cb cap]
+23.8 +12.2 48 +26 +26 жарко 991.5 853.2
С 2 2000 м гроза, ливневой дождь туман 9/9 600 м
[Cb cap]
+15.5 +12.5 82 +15 +16 тепло 996.8 854.0
штиль 0 50 км {гроза, ливн. дождь} 9/9 600 м
[Cb cap]
+14.8 +10.8 77 +15 +15 тепло 998.4 855.1 +24.9 15
ЮВ 1 н/о в посл. час ливневой дождь {гроза} 9/9 600 м
[Cb cap]
+14.5 +10.7 78 +15 +15 тепло 997.8 854.4
штиль 0 н/о {гроза, ливн. дождь} 9/3 1000 м
[Cb calv Ac As]
+14.4 +10.6 78 +14 +14 тепло 997.7 854.3
С 1 50 км 10/10 600 м
[Sc]
+13.7 +10.7 82 +14 +14 тепло 998.8 854.9
штиль 0 2000 м дождь 10/0 600 м
[As op]
+12.7 +12.7 100 +12 +13 прохладно 1000.1 855.6 +12.7 9
СЗ 6 50 км {дождь} 9/9 600 м
[Cb calv]
+15.4 +12.9 85 +14 +14 холодно 999.0 855.9
С 5 50 км {дождь} 10/10 600 м
[Cb calv]
+15.3 +12.6 84 +14 +14 очень
холодно
999.8 856.5
С 2 2000 м слаб. дождь 10/0 600 м
[As op]
+13.8 +12.9 94 +13 +15 очень
холодно
1001.4 857.2
СЗ 1 20 км {дождь} 10/10 600 м
[Frnb Ns]
+14.4 +12.5 88 +15 +15 холодно 1001.9 857.9 +16.2 5
штиль 0 н/о в посл. час дождь 10/0 600 м
[As op]
+13.6 +12.7 94 +13 +13 холодно 1003.3 858.7
СЗ 2 н/о {дождь} 10/10 1000 м
[Sc]
+13.5 +12.6 94 +13 +13 по сезону 1003.0 858.4
СЗ 2 20 км 10/5 600 м
[Frnb As op]
+13.2 +12.4 95 +12 +12 прохладно 1003.8 859.0
штиль 0 20 км 9/5 600 м
[St Ac As]
+14.5 +11.7 83 +14 +16 по сезону 1004.1 859.8 +13.1 0.4
штиль 0 50 км 9/9 1000 м
[Cb calv]
+18.7 +11.5 63 +19 +21 по сезону 1002.4 860.3
З 4 50 км 8/8 1000 м
[Cb calv]
+20.4 +10.8 54 +22 +24 комфорт 1001.3 860.1
З 2 50 км 9/6 1000 м
[Cb calv Ci ing]
+20.9 +11.6 55 +24 +26 комфорт 1001.3 860.3
штиль 0 50 км {ливн. дождь} 8/3 1000 м
[Cb calv Ac cast Ci]
+20.6 +11.8 57 +22 +22 комфорт 1002.3 861.1 +22.4 0.0
штиль 0 н/о 3/0 2000 м
[Ac lent Ci]
+16.3 +12.1 76 +16 +16 по сезону 1006.0 862.3
штиль 0 н/о 1/0 2000 м
[Ac lent]
+13.9 +11.1 83 +14 +14 по сезону 1008.0 862.9
штиль 0 50 км ясно +12.0 +10.6 91 +11 +11 прохладно 1010.0 863.7
штиль 0 50 км 3/0
[Ci]
+15.8 +10.6 71 +16 +21 по сезону 1008.4 864.1 +12.0
штиль 0 50 км 3/3 1000 м
[Cu hum Ci]
+21.9 +11.3 51 +24 +38 комфорт 1004.8 863.8
штиль 0 50 км 4/4 1000 м
[Cu med, cong]
+24.0 +10.3 42 +25 +39 комфорт 1003.5 863.6
СЗ 3 50 км 4/4 600 м
[Cb calv]
+24.3 +11.0 43 +26 +29 жарко 1003.0 863.3
штиль 0 50 км 5/3 1000 м
[Cb calv Cc]
+21.6 +12.8 57 +24 +24 комфорт 1005.4 864.2 +24.5
штиль 0 н/о ясно +17.8 +12.9 73 +18 +18 по сезону 1008.2 864.9
штиль 0 н/о 3/0 2000 м
[Ac cast]
+15.9 +12.3 79 +16 +16 по сезону 1010.3 865.8
В 2 50 км 4/0 2000 м
[Ac trans]
+14.0 +11.7 86 +13 +13 по сезону 1011.1 865.6
Ю 1 50 км 8/3 1000 м
[Cu med, cong Ac und Ci fib]
+16.5 +11.3 71 +17 +20 тепло 1011.5 867.1 +13.9
штиль 0 50 км в посл. час ливневой дождь 9/5 600 м
[Cb cap Ac trans Ci]
+19.7 +12.7 64 +21 +27 комфорт 1009.5 866.8
штиль 0 50 км {ливн. дождь} 8/4 1000 м
[Cb calv Ac As]
+23.9 +9.2 39 +25 +32 комфорт 1006.4 866.0
штиль 0 50 км 3/3 1000 м
[Cb calv Ac lent]
+26.4 +8.0 31 +26 +33 жарко 1003.7 864.8
С 1 50 км 4/3 1000 м
[Cb calv Ci]
+23.1 +11.8 49 +26 +26 жарко 1005.9 865.3 +26.7 0.0
В 2 н/о 3/3 1000 м
[Cb calv]
+19.2 +12.0 63 +21 +21 комфорт 1008.6 865.8
штиль 0 н/о 3/0 2000 м
[Ac trans]
+17.2 +11.5 69 +17 +17 тепло 1009.6 865.9
штиль 0 50 км 4/0 2000 м
[Ac trans]
+15.9 +11.1 73 +16 +16 по сезону 1010.0 865.5
В 4 50 км 4/0 2000 м
[Ac cast]
+19.0 +11.8 63 +20 +22 тепло 1008.9 866.0 +15.8
В 2 50 км 8/5 1000 м
[Cb calv Ac trans]
+26.1 +12.9 44 +28 +33 жарко 1004.0 864.9
ЮЗ 3 20 км осадки на расстоянии {гроза} 9/8 600 м
[Cb cap Ac lent]
+26.3 +11.3 39 +27 +29 жарко 1001.7 863.0
штиль 0
{14}
50 км {гроза, ливн. дождь} 9/9 600 м
[Cb cap]
+20.6 +13.1 62 +23 +24 комфорт 1005.5 863.8
В 4 50 км {гроза, ливн. дождь} 9/6 1000 м
[Cb cap Ac trans]
+21.1 +12.8 59 +23 +23 комфорт 1004.2 862.9 +27.8 1
Местоположение метеостанции Улан-Батор (Монголия): широта 47.92 долгота 106.85 высота над уровнем моря 1306 м.
В архиве по умолчанию представлена погода в Улан-Баторе за последнюю неделю. Архивные данные за месяц целиком и за предыдущие месяцы, начиная с января 2011 года, Вы можете получить, выбрав интересующий диапазон дат из раскрывающегося списка и нажав кнопку "Найти!".
*Определитесь, кто Вы:
Внимание! Время в таблицах - всемирное. Для получения местного времени необходимо прибавить поправку, которая равна 8 ч.
Смотрите также архив погоды в соседних городах и на ближайших метеорологических станциях:
Партнеры нашего сайта:      
Пояснения к столбцам:
  • Ветер - указаны скорость ветра в м/с - средняя за 10 мин, порывы в срок и между сроками (в фигурных скобках) и направление, откуда дует ветер: С - северный,
  • СВ - северо-восточный, В - восточный, ЮВ - юго-восточный, Ю - южный, ЮЗ - юго-западный, З - западный, СЗ - северо-западный.
  • Видимость - горизонтальная дальность видимости в метрах или километрах. При видимости от 1 до 10 км при отсутствии осадков обычно наблюдается дымка, при ухудшении видимости до 1 км и менее - туман. В сухую погоду видимость может ухудшаться дымом, пылью или мглою.
  • Явления - указаны атмосферные явления, наблюдавшиеся в срок или в последний час перед сроком; фигурными скобками обозначены явления, наблюдавшиеся между сроками (за 1-3 часа до срока); квадратными скобками обозначены град или гололедные отложения с указанием их диаметра в мм.
  • Облачность - указаны через наклонную черту общая и нижняя облачность в баллах и высота нижней границы облаков в метрах; квадратными скобками обозначены формы облаков: Ci - перистые, Cs - перисто-слоистые, Cc - перисто-кучевые, Ac - высококучевые, As - высокослоистые, Sc - слоисто-кучевые, Ns - слоисто-дождевые, Cu - кучевые, Cb - кучево-дождевые. Подробнее классификацию облаков см. в Атласе облаков (PDF).
  • T - Температура воздуха - температура, измеренная на высоте 2 м над землей.
  • Td - Температура точки росы - температура, при понижении до которой содержащийся в воздухе водяной пар достигнет насыщения.
  • f - Относительная влажность воздуха - влажноcть воздуха, измеренная на высоте 2 м над землей.
  • Te - Эффективная температура - температура, которую ощущает одетый по сезону человек в тени. Характеристика душности погоды. При расчете учитывается влияние влажности воздуха и скорости ветра на теплоощущения человека.
  • Tes - Эффективная температура на солнце - температура, которую ощущает человек, с поправкой на солнечный нагрев. Характеристика знойности погоды. Зависит от высоты солнца над горизонтом, облачности и скорости ветра. Ночью, в пасмурную погоду, а также при ветре 12 м/с и более поправка равна нулю.
  • P - Атмосферное давление - приведенное к уровню моря атмосферное давление.
  • Po - Атмосферное давление - измеренное на уровне метеостанции атмосферное давление.
  • Tmin - Минимальная температура - минимум температуры воздуха на высоте 2 м над землей.
  • Tmax - Максимальная температура - максимум температуры воздуха на высоте 2 м над землей.
  • R - Количество осадков - Количество выпавших осадков за период времени, мм. При наведении курсора мыши на число - период времени, за который выпало указанное количество осадков.
  • R24 - Количество осадков - Количество выпавших осадков за 24 часа, мм.
  • S - Снежный покров - Высота снежного покрова, см. При наведении курсора мыши на число - состояние снежного покрова и степень покрытия местности в баллах.